TimeGMT,TemperatureF,Dew PointF,Humidity,Sea Level PressureIn,VisibilityMPH,Wind Direction,Wind SpeedMPH,Gust SpeedMPH,PrecipitationIn,Events,Conditions,WindDirDegrees,DateUTC
12:56 AM,75.9,72.9,90,30.88,10.0,SW,10.4,-,N/A,Rain,Light Rain,230,2013-12-24 00:56:00
1:40 AM,75.2,73.4,94,29.97,8.0,SW,12.7,-,0.00,,Mostly Cloudy,220,2013-12-24 01:40:00
1:56 AM,74.8,72.9,94,30.88,8.0,SW,11.5,-,0.00,Rain,Light Rain,230,2013-12-24 01:56:00
2:56 AM,74.8,72.9,94,30.89,8.0,SW,10.4,-,0.00,,Mostly Cloudy,230,2013-12-24 02:56:00
3:56 AM,73.9,72.9,96,30.90,7.0,WSW,12.7,-,N/A,,Clear,240,2013-12-24 03:56:00
4:56 AM,72.9,72.9,100,30.92,4.0,WSW,12.7,-,N/A,,Clear,240,2013-12-24 04:56:00
5:56 AM,72.9,72.9,100,30.93,7.0,WSW,12.7,-,0.00,,Partly Cloudy,240,2013-12-24 05:56:00
6:56 AM,72.9,72.9,100,30.95,7.0,WSW,10.4,-,0.00,,Overcast,240,2013-12-24 06:56:00
7:56 AM,72.0,72.0,100,30.96,6.0,SW,9.2,-,0.00,Rain,Light Rain,230,2013-12-24 07:56:00
8:56 AM,72.9,72.9,100,30.97,7.0,WSW,13.8,-,0.00,Rain,Light Rain,240,2013-12-24 08:56:00
9:06 AM,73.4,73.4,100,30.06,7.0,WSW,12.7,-,0.00,Rain,Light Rain,240,2013-12-24 09:06:00
9:56 AM,70.0,70.0,100,30.06,4.0,NNW,18.4,24.2,0.00,Rain,Light Rain,340,2013-12-24 09:56:00
9:58 AM,69.8,69.8,100,30.06,3.0,NNW,16.1,24.2,0.00,Rain,Light Rain,340,2013-12-24 09:58:00
10:02 AM,69.8,69.8,100,30.06,2.0,NNW,16.1,24.2,0.00,Rain,Light Rain,340,2013-12-24 10:02:00
10:10 AM,68.0,68.0,100,30.07,3.0,NNW,13.8,-,0.01,Rain,Light Rain,340,2013-12-24 10:10:00
10:26 AM,68.0,68.0,100,30.07,2.5,NNW,13.8,-,0.01,Rain,Light Rain,340,2013-12-24 10:26:00
10:33 AM,68.0,68.0,100,30.07,5.0,NNW,12.7,-,0.01,Rain,Light Rain,340,2013-12-24 10:33:00
10:48 AM,68.0,68.0,100,30.06,2.0,NNW,11.5,-,0.01,Rain,Light Rain,340,2013-12-24 10:48:00
10:56 AM,66.9,66.9,100,30.06,3.0,North,10.4,-,0.01,Rain,Light Rain,350,2013-12-24 10:56:00
11:56 AM,66.2,66.2,100,30.06,10.0,NNW,9.2,-,N/A,,Overcast,340,2013-12-24 11:56:00
12:26 PM,66.2,66.2,100,30.07,2.0,NNW,9.2,-,0.00,Rain,Light Rain,330,2013-12-24 12:26:00
12:44 PM,66.2,66.2,100,30.06,8.0,North,5.8,-,0.00,,Mostly Cloudy,350,2013-12-24 12:44:00
12:56 PM,66.9,66.9,100,30.97,10.0,NNW,3.5,-,0.00,,Overcast,340,2013-12-24 12:56:00
1:56 PM,66.9,63.9,90,30.96,10.0,NNW,6.9,-,N/A,,Partly Cloudy,330,2013-12-24 13:56:00
2:56 PM,68.0,63.9,87,30.96,10.0,NNW,3.5,-,N/A,,Overcast,340,2013-12-24 14:56:00
3:56 PM,68.0,63.0,84,30.97,10.0,NNW,5.8,-,N/A,,Clear,340,2013-12-24 15:56:00
4:56 PM,68.0,63.0,84,30.98,10.0,NNW,4.6,-,N/A,,Overcast,330,2013-12-24 16:56:00
5:56 PM,68.0,62.6,83,30.09,10.0,NNW,3.5,-,N/A,,Overcast,330,2013-12-24 17:56:00
6:56 PM,68.9,63.0,81,31.03,10.0,Calm,Calm,-,N/A,,Overcast,0,2013-12-24 18:56:00
7:56 PM,70.9,63.9,78,31.05,9.0,Calm,Calm,-,N/A,,Mostly Cloudy,0,2013-12-24 19:56:00
8:56 PM,70.9,63.0,76,31.06,9.0,NNW,4.6,-,N/A,,Overcast,340,2013-12-24 20:56:00
9:36 PM,69.8,66.2,88,30.15,8.0,North,6.9,-,N/A,,Overcast,10,2013-12-24 21:36:00
9:56 PM,68.9,64.9,87,31.07,10.0,North,6.9,-,N/A,,Mostly Cloudy,360,2013-12-24 21:56:00
10:56 PM,68.9,64.9,87,31.06,9.0,North,8.1,-,N/A,,Overcast,10,2013-12-24 22:56:00
11:11 PM,68.0,64.4,88,30.14,7.0,North,8.1,-,N/A,,Overcast,350,2013-12-24 23:11:00
11:56 PM,68.0,64.4,88,30.12,10.0,NNE,6.9,-,N/A,,Mostly Cloudy,20,2013-12-24 23:56:00